Погода в Бараши

Украина / Житомирская область     50°42′55″N   28°01′50″E
темп.,
°C
ветер,
м/с
пор.,
м/с
влажн.,
%
обл.,
%
осадки,
мм/ч
давл.,
гПа
погр.,
м
14 мая, пт
пт1400:00+9ююв51287100 0.0 1007495
03:00+10ююв51184100 0.0 1007492
06:00+10юв5108763 0.0 1006368
09:00+11ююв577975 0.0 1006400
12:00+17ююв576565 0.0 10051177
15:00+15ююв6982100 1.3 1005657
18:00+14ю5988100 1.0 1005452
21:00+12ю3695100 3.4 1005178
15 мая, сб
сб1500:00+12ююз3697100 2.6 1007219
03:00+11юз4897100 3.1 1007264
06:00+10юз4894100 0.2 1007277
09:00+13юз468489 0.2 1009545
12:00+13ююз5685100 0.2 1009718
15:00+14зюз788697 0.4 1010754
18:00+12зюз578998 0.1 1011533
21:00+12юз369188 0.1 1011205
16 мая, вс
вс1600:00+9юз34955 0.0 101266
03:00+8юз23955 0.0 101235
06:00+8ююв11925 0.0 101212
09:00+14юв347621 0.0 1012345
12:00+19ююв57611 0.0 1011981
15:00+20ююв7864100 0.9 10101330
18:00+19ююв487230 1.2 1008917
21:00+14юв410868 2.0 1008171
17 мая, пн
пн1700:00+13вюв499023 0.3 1007144
03:00+12ю2293100 0.4 100727
06:00+12з369894 0.2 1007158
09:00+14сз3488100 0.2 1008536
12:00+14сз3689100 0.1 1007456
15:00+14сз258889 1.1 1007440
18:00+15зсз587999 0.3 1007389
21:00+12з22840 0.3 100711
18 мая, вт
вт1800:00+10з12860 0.0 100811
03:00+9юз228824 0.0 100813
06:00+9зюз2289100 0.0 100824
09:00+13зюз2277100 0.0 1008195
12:00+14з1175100 0.2 1008357
15:00+13з2388100 0.4 1008208
18:00+11ссз3592100 0.3 1008171
21:00+10сз3697100 1.1 1008250